Regional Weather Roundup
Issued by NWS San Angelo, TX

Home | Current Version | Previous Version | Text Only | Print | Product List | Glossary On
Versions: 1 2 3 4 5 6 7 8 9 10 11 12 13 14 15 16 17 18 19 20 21 22 23 24 25 26 27 28 29 30 31 32 33 34 35 36 37 38 39 40 41 42 43 44 45 46 47 48 49 50
000
ASUS44 KSJT 290058
RWRSJT
WEST CENTRAL TEXAS REGIONAL WEATHER ROUNDUP
NATIONAL WEATHER SERVICE SAN ANGELO TX
800 PM CDT TUE MAR 28 2017

NOTE: "FAIR" INDICATES FEW OR NO CLOUDS BELOW 12,000 FEET WITH NO
SIGNIFICANT WEATHER AND/OR OBSTRUCTIONS TO VISIBILITY.

TXZ049-054-064>066-071>073-076>078-098-099-113-114-127-128-139-140-
154-155-168>170-290200
...LOCATIONS ACROSS WEST CENTRAL TEXAS...

CITY           SKY/WX    TMP DP  RH WIND       PRES   REMARKS
SAN ANGELO     CLEAR     74  61  63 SE22G36   29.52F
ABILENE        PTCLDY    73  63  70 SE21G31   29.56R
DYESS AFB      NOT AVBL
JUNCTION       CLOUDY    76  61  59 S7        29.66R
SWEETWATER     NOT AVBL
BROWNWOOD      NOT AVBL
COLEMAN        NOT AVBL
SONORA         NOT AVBL
OZONA          NOT AVBL
BRADY          NOT AVBL
$$

TEXAS PANHANDLE/OKLAHOMA PANHANDLE

CITY           SKY/WX    TMP DP  RH WIND       PRES   REMARKS
AMARILLO       CLOUDY    49  47  93 NE17      29.70S
BORGER         CLOUDY    47  47 100 NE12      29.73R
CANADIAN       NOT AVBL
DALHART        CLOUDY    45  44  97 N16       29.80S WCI  38
DUMAS          NOT AVBL
GUYMON         NOT AVBL
HEREFORD       NOT AVBL
PAMPA          NOT AVBL
PERRYTON       NOT AVBL
$$

SOUTHERN PANHANDLE/SOUTH PLAINS/ROLLING PLAINS

CITY           SKY/WX    TMP DP  RH WIND       PRES   REMARKS
LUBBOCK        CLOUDY    59  51  75 VRB5      29.62R THUNDER
SNYDER         NOT AVBL
CHILDRESS      CLOUDY    57  54  89 NE18G29   29.63R
SEMINOLE       NOT AVBL
$$

PERMIAN BASIN

CITY           SKY/WX    TMP DP  RH WIND       PRES   REMARKS
MIDLAND        CLOUDY    63  43  48 NW36G46   29.64R HAZE
ODESSA           N/A     62  40  44 MISG      29.67R
WINK           CLOUDY    64  30  27 NW23G33   29.68S
$$

FAR WEST/SOUTHWEST MOUNTAINS/TRANS PECOS

CITY           SKY/WX    TMP DP  RH WIND       PRES   REMARKS
ALPINE         NOT AVBL
DRYDEN         NOT AVBL
EL PASO        MOCLDY    56  31  38 N13       29.81S
FORT STOCKTON  MOCLDY    65  34  31 NW30G44   29.65S
GUADALUPE PASS NOT AVBL
MARFA          NOT AVBL
PECOS          NOT AVBL
$$

DALLAS/FORT WORTH METROPLEX

CITY           SKY/WX    TMP DP  RH WIND       PRES   REMARKS
DFW AIRPORT    CLOUDY    81  63  54 SE16      29.65R
FTW MEACHAM    CLOUDY    80  60  50 SE17G25   29.65R
DAL-EXECUTIVE  MOCLDY    79  63  57 SE13G25   29.66F
GRAND PRAIRIE  NOT AVBL
ADDISON        PTCLDY    79  63  57 SE14G22   29.67F
MESQUITE       PTCLDY    79  61  53 SE14      29.69S
LANCASTER      NOT AVBL
$$

NORTH CENTRAL TEXAS

CITY           SKY/WX    TMP DP  RH WIND       PRES   REMARKS
SHRMAN/DENISON NOT AVBL
GAINESVILLE    NOT AVBL
BRIDGEPORT     NOT AVBL
DENTON         CLOUDY    78  64  61 SE12      29.66R
WAXAHACHIE     NOT AVBL
GRANBURY       NOT AVBL
$$

WESTERN NORTH TEXAS

CITY           SKY/WX    TMP DP  RH WIND       PRES   REMARKS
WICHITA FALLS  CLOUDY    71  64  78 E16       29.62S THUNDER
VERNON         NOT AVBL
BRECKENRIDGE   NOT AVBL
COMANCHE       NOT AVBL
$$

CENTRAL AND SOUTH CENTRAL TEXAS

CITY           SKY/WX    TMP DP  RH WIND       PRES   REMARKS
AUSTIN/BERGSTM PTCLDY    78  61  55 SE16G28   29.68R
WACO           MOCLDY    78  61  55 SE17      29.67S
HILLSBORO      NOT AVBL
TEMPLE         PTCLDY    77  62  59 SE16      29.69R
KILLEEN-GRAY   NOT AVBL
FORT HOOD      NOT AVBL
GEORGETOWN     MOCLDY    79  59  50 SE14G24   29.69R
LAGO VISTA     NOT AVBL
SAN MARCOS     NOT AVBL
NEW BRAUNFELS  PTCLDY    77  63  61 SE17      29.66R
RANDOLPH AFB   NOT AVBL
SAN ANTONIO    MOCLDY    76  62  62 SE20G28   29.67R
STINSON        CLEAR     77  63  61 SE17G26   29.64R
PLEASANTON     NOT AVBL
LA GRANGE      NOT AVBL
GIDDINGS       NOT AVBL
$$

EAST TEXAS

CITY           SKY/WX    TMP DP  RH WIND       PRES   REMARKS
PARIS          NOT AVBL
CLARKSVILLE    NOT AVBL
TYLER          CLEAR     77  61  57 S12       29.75R
LONGVIEW       CLEAR     76  63  64 S9        29.76R
PALESTINE      NOT AVBL
NACOGDOCHES    NOT AVBL
$$

TEXAS HILL COUNTRY AND EDWARDS PLATEAU

CITY           SKY/WX    TMP DP  RH WIND       PRES   REMARKS
LLANO          NOT AVBL
HORSESHOE BAY  NOT AVBL
KERRVILLE      NOT AVBL
FREDERICKSBRG  NOT AVBL
ROCKSPRINGS    NOT AVBL
HONDO          CLEAR     79  61  53 SE20G25   29.63R
UVALDE         NOT AVBL
DEL RIO        PTCLDY    82  65  56 E13       29.51R
$$

SOUTHEAST TEXAS

CITY           SKY/WX    TMP DP  RH WIND       PRES   REMARKS
COLLEGE STN    PTCLDY    77  64  64 SE20G28   29.72S
CALDWELL       NOT AVBL
CROCKETT       NOT AVBL
BRENHAM        NOT AVBL
HUNTSVILLE     PTCLDY    76  63  64 SE7G17    29.77R
CONROE         MOCLDY    74  67  78 SE13      29.78S
HOUSTON BUSH   CLOUDY    76  69  79 SE20      29.78S
HOUSTON HOBBY  CLOUDY    76  69  79 SE15G24   29.78S
PERLAND        CLOUDY    78  70  76 SE16      29.80R
WHARTON        NOT AVBL
$$

THE UPPER TEXAS COAST

CITY           SKY/WX    TMP DP  RH WIND       PRES   REMARKS
ORANGE         NOT AVBL
PORT ARTHUR    CLOUDY    74  68  81 SE18G24   29.82S
GALVESTON      CLOUDY    76  72  87 SE16      29.80S
ANGLETON       CLOUDY    76  71  85 SE14      29.78S
BAY CITY       NOT AVBL
$$

TEXAS COASTAL BEND, RIO GRANDE PLAINS DEEP SOUTH TEXAS

CITY           SKY/WX    TMP DP  RH WIND       PRES   REMARKS
VICTORIA       CLOUDY    77  69  76 SE25G33   29.70F
BEEVILLE       NOT AVBL
ROCKPORT       NOT AVBL
PORT ARANSAS   NOT AVBL
PORT LAVACA    NOT AVBL
CORPUS CHRISTI MOCLDY    76  72  87 SE26G33   29.65S
KINGSVILLE NAS MOCLDY    76  73  91 SE18      29.64R
COTULLA        CLEAR     81  67  62 SE22G28   29.58R
LAREDO         NOT AVBL
BROWNSVILLE    MOCLDY    78  72  81 SE20G32   29.65F
PORT ISABEL    MOCLDY    78  73  84 SE24G35   29.64F
HEBBRONVILLE   NOT AVBL
MCALLEN        CLEAR     81  69  67 SE16G26   29.62R
WESLACO        NOT AVBL
FALFURRIAS     NOT AVBL
EDINBURG       NOT AVBL
$$



USA.gov is the U.S. government's official web portal to all federal, state and local government web resources and services.